This is the latest recevied weather packets stored in our database for station/object WB3EGK. If no packets are shown the sender has not sent any weather packets the latest 10 day(s).
| Time | Temp. | Humidity | Pressure | Rain* | Wind** | Luminosity | Snow |
|---|---|---|---|---|---|---|---|
| 1777675287 | 3.33° C | 1% | 1010.1 hPa | 0 mm | - | 84 W/m² | - |
| 1777674984 | 3.33° C | 1% | 1010.4 hPa | 0 mm | - | 83 W/m² | - |
| 1777674681 | 3.89° C | 1% | 1010.4 hPa | 0 mm | - | 61 W/m² | - |
| 1777674386 | 3.89° C | 1% | 1010.4 hPa | 1.78 mm | - | 80 W/m² | - |
| 1777674074 | 3.33° C | 1% | 1010.4 hPa | 1.78 mm | - | 98 W/m² | - |
| 1777673770 | 3.33° C | 1% | 1010.2 hPa | 0 mm | - | 64 W/m² | - |
| 1777673468 | 3.89° C | 1% | 1010.4 hPa | 0 mm | - | 98 W/m² | - |
| 1777673165 | 3.89° C | 1% | 1010.2 hPa | 0 mm | - | 103 W/m² | - |
| 1777672862 | 3.89° C | 1% | 1010.1 hPa | 0 mm | - | 127 W/m² | - |
| 1777672558 | 3.33° C | 1% | 1010.2 hPa | 0 mm | - | 147 W/m² | - |
| 1777672254 | 3.33° C | 1% | 1010.3 hPa | 0 mm | - | 46 W/m² | - |
| 1777671949 | 3.33° C | 1% | 1010.2 hPa | 0 mm | - | 36 W/m² | - |
| 1777671645 | 3.33° C | 1% | 1010.1 hPa | 0 mm | - | 36 W/m² | - |
| 1777671342 | 3.33° C | 1% | 1010.1 hPa | 1.78 mm | - | 61 W/m² | - |
| 1777671038 | 3.33° C | 1% | 1010.1 hPa | 1.78 mm | - | 69 W/m² | - |
| 1777670734 | 3.33° C | 1% | 1010.1 hPa | 0 mm | - | 63 W/m² | - |
| 1777670432 | 3.33° C | 1% | 1010.1 hPa | 0 mm | - | 80 W/m² | - |
| 1777670128 | 3.33° C | 1% | 1010.1 hPa | 0 mm | - | 52 W/m² | - |
| 1777669827 | 3.33° C | 1% | 1010 hPa | 0 mm | - | 43 W/m² | - |
| 1777669522 | 3.33° C | 1% | 1009.7 hPa | 1.27 mm | - | 65 W/m² | - |
| 1777669219 | 3.89° C | 1% | 1009.7 hPa | 1.27 mm | - | 75 W/m² | - |
| 1777668916 | 3.89° C | 1% | 1009.6 hPa | 0 mm | - | 116 W/m² | - |
| 1777668614 | 3.89° C | 1% | 1009.7 hPa | 0 mm | - | 117 W/m² | - |
| 1777668309 | 3.89° C | 1% | 1009.6 hPa | 1.78 mm | - | 210 W/m² | - |
| 1777668005 | 3.89° C | 1% | 1009.7 hPa | 1.78 mm | - | 98 W/m² | - |
* Rain latest hour (hover to see other rain measurements)
** Current wind speed in m/s (hover to see current wind gust speed)